Wetterdaten: Sonntag, 13.04.2014
Datum Zeit Temperatur Luftfeuchte Luftdruck Regen Wind Richtung Richtung Taupunkt Windchill Windben
13.04.2014 00:00 8,2 C 94 % 1016,5 hPa 0,0 l/m 0,0 km/h (0 Bft) SW 225 7,3 C 0,0 C 0,0 km/h (0 Bft)
13.04.2014 00:05 8,2 C 94 % 1016,8 hPa 0,0 l/m 0,0 km/h (0 Bft) SW 225 7,3 C 0,0 C 0,0 km/h (0 Bft)
13.04.2014 00:10 8,3 C 94 % 1016,8 hPa 0,0 l/m 0,0 km/h (0 Bft) SW 225 7,4 C 0,0 C 0,0 km/h (0 Bft)
13.04.2014 00:15 8,3 C 94 % 1016,8 hPa 0,0 l/m 0,0 km/h (0 Bft) SW 225 7,4 C 0,0 C 0,0 km/h (0 Bft)
13.04.2014 00:20 8,2 C 94 % 1016,8 hPa 0,0 l/m 0,0 km/h (0 Bft) SW 225 7,3 C 0,0 C 0,0 km/h (0 Bft)
13.04.2014 00:25 8,1 C 94 % 1016,6 hPa 0,0 l/m 0,0 km/h (0 Bft) SW 225 7,2 C 0,0 C 0,0 km/h (0 Bft)
13.04.2014 00:30 8,0 C 94 % 1016,6 hPa 0,0 l/m 0,0 km/h (0 Bft) SW 225 7,1 C 0,0 C 0,0 km/h (0 Bft)
13.04.2014 00:35 8,0 C 94 % 1016,6 hPa 0,0 l/m 0,0 km/h (0 Bft) SW 225 7,1 C 0,0 C 0,0 km/h (0 Bft)
13.04.2014 00:40 8,0 C 94 % 1016,6 hPa 0,0 l/m 0,0 km/h (0 Bft) SW 225 7,1 C 0,0 C 0,0 km/h (0 Bft)
13.04.2014 00:45 8,0 C 94 % 1016,7 hPa 0,0 l/m 0,0 km/h (0 Bft) SW 225 7,1 C 0,0 C 0,0 km/h (0 Bft)
13.04.2014 00:50 8,0 C 94 % 1016,7 hPa 0,0 l/m 0,0 km/h (0 Bft) SW 225 7,1 C 0,0 C 0,0 km/h (0 Bft)
13.04.2014 00:55 7,9 C 94 % 1016,7 hPa 0,0 l/m 0,0 km/h (0 Bft) SW 225 7,0 C 0,0 C 0,0 km/h (0 Bft)
13.04.2014 01:00 7,9 C 94 % 1016,7 hPa 0,0 l/m 0,0 km/h (0 Bft) SW 225 7,0 C 0,0 C 0,0 km/h (0 Bft)
13.04.2014 01:05 7,9 C 94 % 1016,7 hPa 0,0 l/m 0,0 km/h (0 Bft) SW 225 7,0 C 0,0 C 0,0 km/h (0 Bft)
13.04.2014 01:10 7,9 C 94 % 1016,7 hPa 0,0 l/m 0,0 km/h (0 Bft) SW 225 7,0 C 0,0 C 0,0 km/h (0 Bft)
13.04.2014 01:15 7,9 C 94 % 1016,7 hPa 0,0 l/m 0,0 km/h (0 Bft) SW 225 7,0 C 0,0 C 0,0 km/h (0 Bft)
13.04.2014 01:20 7,9 C 94 % 1016,7 hPa 0,0 l/m 0,0 km/h (0 Bft) SW 225 7,0 C 0,0 C 0,0 km/h (0 Bft)
13.04.2014 01:25 7,9 C 94 % 1016,8 hPa 0,0 l/m 0,0 km/h (0 Bft) SW 225 7,0 C 0,0 C 0,0 km/h (0 Bft)
13.04.2014 01:30 8,4 C 94 % 1016,8 hPa 0,0 l/m 0,0 km/h (0 Bft) SW 225 7,5 C 0,0 C 0,0 km/h (0 Bft)
13.04.2014 01:35 8,5 C 94 % 1016,8 hPa 0,0 l/m 0,0 km/h (0 Bft) SW 225 7,6 C 0,0 C 0,0 km/h (0 Bft)
13.04.2014 01:40 8,7 C 93 % 1016,8 hPa 0,0 l/m 0,0 km/h (0 Bft) SW 225 7,6 C 0,0 C 0,0 km/h (0 Bft)
13.04.2014 01:45 8,7 C 93 % 1016,8 hPa 0,0 l/m 0,0 km/h (0 Bft) SW 225 7,6 C 0,0 C 0,0 km/h (0 Bft)
13.04.2014 01:50 8,7 C 93 % 1016,8 hPa 0,0 l/m 0,0 km/h (0 Bft) SW 225 7,6 C 0,0 C 0,0 km/h (0 Bft)
13.04.2014 01:55 8,8 C 92 % 1016,8 hPa 0,0 l/m 0,0 km/h (0 Bft) SW 225 7,6 C 0,0 C 0,0 km/h (0 Bft)
13.04.2014 02:00 8,9 C 91 % 1016,8 hPa 0,0 l/m 0,0 km/h (0 Bft) SW 225 7,5 C 0,0 C 0,0 km/h (0 Bft)
13.04.2014 02:05 9,0 C 91 % 1016,6 hPa 0,0 l/m 0,0 km/h (0 Bft) SW 225 7,6 C 0,0 C 0,0 km/h (0 Bft)
13.04.2014 02:10 8,9 C 90 % 1016,6 hPa 0,0 l/m 0,0 km/h (0 Bft) SW 225 7,4 C 0,0 C 0,0 km/h (0 Bft)
13.04.2014 02:15 9,0 C 89 % 1016,6 hPa 0,0 l/m 0,0 km/h (0 Bft) SW 225 7,3 C 0,0 C 0,0 km/h (0 Bft)
13.04.2014 02:20 9,3 C 88 % 1016,6 hPa 0,0 l/m 0,0 km/h (0 Bft) SW 225 7,4 C 0,0 C 0,0 km/h (0 Bft)
13.04.2014 02:25 9,4 C 87 % 1016,6 hPa 0,0 l/m 0,0 km/h (0 Bft) SW 225 7,3 C 0,0 C 0,0 km/h (0 Bft)
13.04.2014 02:30 9,6 C 86 % 1016,6 hPa 0,0 l/m 0,0 km/h (0 Bft) SW 225 7,4 C 0,0 C 0,0 km/h (0 Bft)
13.04.2014 02:35 9,6 C 86 % 1016,6 hPa 0,0 l/m 0,0 km/h (0 Bft) SW 225 7,4 C 0,0 C 0,0 km/h (0 Bft)
13.04.2014 02:40 9,6 C 86 % 1016,6 hPa 0,0 l/m 0,0 km/h (0 Bft) SW 225 7,4 C 0,0 C 0,0 km/h (0 Bft)
13.04.2014 02:45 9,6 C 86 % 1016,6 hPa 0,0 l/m 0,0 km/h (0 Bft) SW 225 7,4 C 0,0 C 0,0 km/h (0 Bft)
13.04.2014 02:50 9,6 C 86 % 1016,6 hPa 0,0 l/m 0,0 km/h (0 Bft) SW 225 7,4 C 0,0 C 0,0 km/h (0 Bft)
13.04.2014 02:55 9,4 C 86 % 1016,6 hPa 0,0 l/m 0,0 km/h (0 Bft) SW 225 7,2 C 0,0 C 0,0 km/h (0 Bft)
13.04.2014 03:00 9,4 C 86 % 1016,6 hPa 0,0 l/m 0,0 km/h (0 Bft) SW 225 7,2 C 0,0 C 0,0 km/h (0 Bft)
13.04.2014 03:05 9,0 C 87 % 1016,6 hPa 0,0 l/m 0,0 km/h (0 Bft) SW 225 7,0 C 0,0 C 0,0 km/h (0 Bft)
13.04.2014 03:10 8,9 C 88 % 1016,8 hPa 0,0 l/m 0,0 km/h (0 Bft) SW 225 7,0 C 0,0 C 0,0 km/h (0 Bft)
13.04.2014 03:15 8,5 C 89 % 1016,8 hPa 0,0 l/m 0,0 km/h (0 Bft) SW 225 6,8 C 0,0 C 0,0 km/h (0 Bft)
13.04.2014 03:20 8,5 C 90 % 1016,8 hPa 0,0 l/m 0,0 km/h (0 Bft) SW 225 7,0 C 0,0 C 0,0 km/h (0 Bft)
13.04.2014 03:25 8,5 C 90 % 1016,8 hPa 0,0 l/m 0,0 km/h (0 Bft) SW 225 7,0 C 0,0 C 0,0 km/h (0 Bft)
13.04.2014 03:30 8,5 C 91 % 1017,0 hPa 0,0 l/m 0,0 km/h (0 Bft) SW 225 7,1 C 0,0 C 0,0 km/h (0 Bft)
13.04.2014 03:35 8,4 C 91 % 1017,0 hPa 0,0 l/m 0,0 km/h (0 Bft) SW 225 7,0 C 0,0 C 0,0 km/h (0 Bft)
13.04.2014 03:40 8,3 C 91 % 1017,0 hPa 0,0 l/m 0,0 km/h (0 Bft) SW 225 6,9 C 0,0 C 0,0 km/h (0 Bft)
13.04.2014 03:45 8,2 C 92 % 1017,0 hPa 0,0 l/m 0,0 km/h (0 Bft) SW 225 7,0 C 0,0 C 0,0 km/h (0 Bft)
13.04.2014 03:50 8,3 C 92 % 1016,8 hPa 0,0 l/m 0,0 km/h (0 Bft) SW 225 7,1 C 0,0 C 0,0 km/h (0 Bft)
13.04.2014 03:55 8,4 C 92 % 1016,8 hPa 0,0 l/m 0,0 km/h (0 Bft) SW 225 7,2 C 0,0 C 0,0 km/h (0 Bft)
13.04.2014 04:00 8,5 C 92 % 1016,8 hPa 0,0 l/m 0,0 km/h (0 Bft) SW 225 7,3 C 0,0 C 0,0 km/h (0 Bft)
13.04.2014 04:05 8,2 C 92 % 1016,8 hPa 0,0 l/m 0,0 km/h (0 Bft) SW 225 7,0 C 0,0 C 0,0 km/h (0 Bft)
13.04.2014 04:10 7,9 C 92 % 1016,9 hPa 0,0 l/m 0,0 km/h (0 Bft) SW 225 6,7 C 0,0 C 0,0 km/h (0 Bft)
13.04.2014 04:14 7,8 C 92 % 1016,9 hPa 0,0 l/m 0,0 km/h (0 Bft) SW 225 6,6 C 0,0 C 0,0 km/h (0 Bft)
13.04.2014 04:15 7,8 C 92 % 1016,9 hPa 0,0 l/m 0,0 km/h (0 Bft) SW 225 6,6 C 0,0 C 0,0 km/h (0 Bft)
13.04.2014 04:20 7,6 C 92 % 1016,9 hPa 0,0 l/m 0,0 km/h (0 Bft) SW 225 6,4 C 0,0 C 0,0 km/h (0 Bft)
13.04.2014 04:25 7,5 C 92 % 1017,1 hPa 0,0 l/m 0,0 km/h (0 Bft) SW 225 6,3 C 0,0 C 0,0 km/h (0 Bft)
13.04.2014 04:30 7,4 C 92 % 1017,1 hPa 0,0 l/m 0,0 km/h (0 Bft) SW 225 6,2 C 0,0 C 0,0 km/h (0 Bft)
13.04.2014 04:35 7,4 C 92 % 1017,1 hPa 0,0 l/m 0,0 km/h (0 Bft) SW 225 6,2 C 0,0 C 0,0 km/h (0 Bft)
13.04.2014 04:40 7,4 C 93 % 1017,1 hPa 0,0 l/m 0,0 km/h (0 Bft) SW 225 6,3 C 0,0 C 0,0 km/h (0 Bft)
13.04.2014 04:45 7,4 C 93 % 1016,9 hPa 0,0 l/m 0,0 km/h (0 Bft) SW 225 6,3 C 0,0 C 0,0 km/h (0 Bft)
13.04.2014 04:50 7,4 C 93 % 1016,9 hPa 0,0 l/m 0,0 km/h (0 Bft) SW 225 6,3 C 0,0 C 0,0 km/h (0 Bft)
13.04.2014 04:55 7,4 C 93 % 1016,9 hPa 0,0 l/m 0,0 km/h (0 Bft) SW 225 6,3 C 0,0 C 0,0 km/h (0 Bft)
13.04.2014 05:00 7,3 C 93 % 1016,9 hPa 0,0 l/m 0,0 km/h (0 Bft) SW 225 6,2 C 0,0 C 0,0 km/h (0 Bft)
13.04.2014 05:05 7,2 C 93 % 1017,2 hPa 0,0 l/m 0,0 km/h (0 Bft) SW 225 6,1 C 0,0 C 0,0 km/h (0 Bft)
13.04.2014 05:10 7,0 C 93 % 1017,2 hPa 0,0 l/m 0,0 km/h (0 Bft) SW 225 5,9 C 0,0 C 0,0 km/h (0 Bft)
13.04.2014 05:15 7,0 C 93 % 1017,2 hPa 0,0 l/m 0,0 km/h (0 Bft) SW 225 5,9 C 0,0 C 0,0 km/h (0 Bft)
13.04.2014 05:20 7,0 C 94 % 1017,2 hPa 0,0 l/m 0,0 km/h (0 Bft) SW 225 6,1 C 0,0 C 0,0 km/h (0 Bft)
13.04.2014 05:25 7,1 C 94 % 1017,1 hPa 0,0 l/m 0,0 km/h (0 Bft) SW 225 6,2 C 0,0 C 0,0 km/h (0 Bft)
13.04.2014 05:30 7,1 C 94 % 1017,1 hPa 0,0 l/m 0,0 km/h (0 Bft) SW 225 6,2 C 0,0 C 0,0 km/h (0 Bft)
13.04.2014 05:35 7,2 C 94 % 1017,1 hPa 0,0 l/m 0,0 km/h (0 Bft) SW 225 6,3 C 0,0 C 0,0 km/h (0 Bft)
13.04.2014 05:40 7,2 C 94 % 1017,1 hPa 0,0 l/m 0,0 km/h (0 Bft) SW 225 6,3 C 0,0 C 0,0 km/h (0 Bft)
13.04.2014 05:45 7,2 C 94 % 1017,2 hPa 0,0 l/m 0,0 km/h (0 Bft) SW 225 6,3 C 0,0 C 0,0 km/h (0 Bft)
13.04.2014 05:50 7,3 C 94 % 1017,2 hPa 0,0 l/m 0,0 km/h (0 Bft) SW 225 6,4 C 0,0 C 0,0 km/h (0 Bft)
13.04.2014 05:55 7,3 C 94 % 1017,2 hPa 0,0 l/m 0,0 km/h (0 Bft) SW 225 6,4 C 0,0 C 0,0 km/h (0 Bft)
13.04.2014 06:00 7,3 C 94 % 1017,2 hPa 0,0 l/m 0,0 km/h (0 Bft) SW 225 6,4 C 0,0 C 0,0 km/h (0 Bft)
13.04.2014 06:05 7,2 C 94 % 1017,4 hPa 0,0 l/m 0,0 km/h (0 Bft) SW 225 6,3 C 0,0 C 0,0 km/h (0 Bft)
13.04.2014 06:10 7,2 C 94 % 1017,4 hPa 0,0 l/m 0,0 km/h (0 Bft) SW 225 6,3 C 0,0 C 0,0 km/h (0 Bft)
13.04.2014 06:15 7,2 C 94 % 1017,4 hPa 0,0 l/m 0,0 km/h (0 Bft) SW 225 6,3 C 0,0 C 0,0 km/h (0 Bft)
13.04.2014 06:20 7,2 C 94 % 1017,4 hPa 0,0 l/m 0,0 km/h (0 Bft) SW 225 6,3 C 0,0 C 0,0 km/h (0 Bft)
13.04.2014 06:25 7,2 C 94 % 1017,7 hPa 0,0 l/m 0,0 km/h (0 Bft) SW 225 6,3 C 0,0 C 0,0 km/h (0 Bft)
13.04.2014 06:30 7,2 C 94 % 1017,7 hPa 0,0 l/m 0,0 km/h (0 Bft) SW 225 6,3 C 0,0 C 0,0 km/h (0 Bft)
13.04.2014 06:35 7,1 C 94 % 1017,7 hPa 0,0 l/m 0,0 km/h (0 Bft) SW 225 6,2 C 0,0 C 0,0 km/h (0 Bft)
13.04.2014 06:40 7,0 C 94 % 1017,7 hPa 0,0 l/m 0,0 km/h (0 Bft) SW 225 6,1 C 0,0 C 0,0 km/h (0 Bft)
13.04.2014 06:45 6,9 C 95 % 1018,1 hPa 0,0 l/m 0,0 km/h (0 Bft) SW 225 6,2 C 0,0 C 0,0 km/h (0 Bft)
13.04.2014 06:50 6,7 C 95 % 1018,1 hPa 0,0 l/m 0,0 km/h (0 Bft) SW 225 6,0 C 0,0 C 0,0 km/h (0 Bft)
13.04.2014 06:55 6,7 C 95 % 1018,1 hPa 0,0 l/m 0,0 km/h (0 Bft) SW 225 6,0 C 0,0 C 0,0 km/h (0 Bft)
13.04.2014 07:00 6,6 C 95 % 1018,1 hPa 0,0 l/m 0,0 km/h (0 Bft) SW 225 5,9 C 0,0 C 0,0 km/h (0 Bft)
13.04.2014 07:05 6,7 C 95 % 1018,2 hPa 0,0 l/m 0,0 km/h (0 Bft) SW 225 6,0 C 0,0 C 0,0 km/h (0 Bft)
13.04.2014 07:10 6,8 C 95 % 1018,2 hPa 0,0 l/m 0,0 km/h (0 Bft) SW 225 6,1 C 0,0 C 0,0 km/h (0 Bft)
13.04.2014 07:15 6,9 C 95 % 1018,2 hPa 0,0 l/m 0,0 km/h (0 Bft) SW 225 6,2 C 0,0 C 0,0 km/h (0 Bft)
13.04.2014 07:20 6,9 C 95 % 1018,2 hPa 0,0 l/m 0,0 km/h (0 Bft) SW 225 6,2 C 0,0 C 0,0 km/h (0 Bft)
13.04.2014 07:25 6,9 C 95 % 1018,5 hPa 0,0 l/m 0,0 km/h (0 Bft) SW 225 6,2 C 0,0 C 0,0 km/h (0 Bft)
13.04.2014 07:30 7,0 C 95 % 1018,5 hPa 0,0 l/m 0,0 km/h (0 Bft) SW 225 6,3 C 0,0 C 0,0 km/h (0 Bft)
13.04.2014 07:35 7,1 C 95 % 1018,5 hPa 0,0 l/m 0,0 km/h (0 Bft) SW 225 6,4 C 0,0 C 0,0 km/h (0 Bft)
13.04.2014 07:40 7,2 C 95 % 1018,5 hPa 0,0 l/m 0,0 km/h (0 Bft) SW 225 6,5 C 0,0 C 0,0 km/h (0 Bft)
13.04.2014 07:45 7,3 C 95 % 1018,6 hPa 0,0 l/m 0,0 km/h (0 Bft) SW 225 6,6 C 0,0 C 0,0 km/h (0 Bft)
13.04.2014 07:50 7,4 C 95 % 1018,6 hPa 0,0 l/m 0,0 km/h (0 Bft) SW 225 6,7 C 0,0 C 0,0 km/h (0 Bft)
13.04.2014 07:55 7,4 C 95 % 1018,6 hPa 0,0 l/m 0,0 km/h (0 Bft) SW 225 6,7 C 0,0 C 0,0 km/h (0 Bft)
13.04.2014 08:00 7,5 C 95 % 1018,6 hPa 0,0 l/m 0,0 km/h (0 Bft) SW 225 6,8 C 0,0 C 0,0 km/h (0 Bft)
13.04.2014 08:05 7,5 C 95 % 1018,8 hPa 0,0 l/m 0,0 km/h (0 Bft) SW 225 6,8 C 0,0 C 0,0 km/h (0 Bft)
13.04.2014 08:10 7,5 C 95 % 1018,8 hPa 0,0 l/m 0,0 km/h (0 Bft) SW 225 6,8 C 0,0 C 0,0 km/h (0 Bft)
13.04.2014 08:15 7,6 C 95 % 1018,8 hPa 0,0 l/m 0,0 km/h (0 Bft) SW 225 6,9 C 0,0 C 0,0 km/h (0 Bft)
13.04.2014 08:20 7,7 C 95 % 1018,8 hPa 0,0 l/m 0,0 km/h (0 Bft) SW 225 7,0 C 0,0 C 0,0 km/h (0 Bft)
13.04.2014 08:25 7,7 C 95 % 1018,8 hPa 0,0 l/m 0,0 km/h (0 Bft) SW 225 7,0 C 0,0 C 0,0 km/h (0 Bft)
13.04.2014 08:30 7,8 C 95 % 1018,8 hPa 0,0 l/m 0,0 km/h (0 Bft) SW 225 7,0 C 0,0 C 0,0 km/h (0 Bft)
13.04.2014 08:35 7,9 C 95 % 1018,8 hPa 0,0 l/m 0,0 km/h (0 Bft) SW 225 7,1 C 0,0 C 0,0 km/h (0 Bft)
13.04.2014 08:40 7,9 C 95 % 1018,8 hPa 0,0 l/m 0,0 km/h (0 Bft) SW 225 7,1 C 0,0 C 0,0 km/h (0 Bft)
13.04.2014 08:45 7,9 C 95 % 1018,8 hPa 0,0 l/m 0,0 km/h (0 Bft) SW 225 7,1 C 0,0 C 0,0 km/h (0 Bft)
13.04.2014 08:50 8,0 C 95 % 1019,0 hPa 0,0 l/m 0,0 km/h (0 Bft) SW 225 7,2 C 0,0 C 0,0 km/h (0 Bft)
13.04.2014 08:55 8,2 C 95 % 1019,0 hPa 0,0 l/m 0,0 km/h (0 Bft) SW 225 7,4 C 0,0 C 0,0 km/h (0 Bft)
13.04.2014 09:00 8,4 C 95 % 1019,0 hPa 0,0 l/m 0,0 km/h (0 Bft) SW 225 7,6 C 0,0 C 0,0 km/h (0 Bft)
13.04.2014 09:05 8,4 C 95 % 1019,0 hPa 0,0 l/m 0,0 km/h (0 Bft) SW 225 7,6 C 0,0 C 0,0 km/h (0 Bft)
13.04.2014 09:10 8,4 C 95 % 1019,2 hPa 0,0 l/m 0,0 km/h (0 Bft) SW 225 7,6 C 0,0 C 0,0 km/h (0 Bft)
13.04.2014 09:14 8,5 C 95 % 1019,2 hPa 0,0 l/m 0,0 km/h (0 Bft) SW 225 7,7 C 0,0 C 0,0 km/h (0 Bft)
13.04.2014 09:15 8,5 C 95 % 1019,2 hPa 0,0 l/m 0,0 km/h (0 Bft) SW 225 7,7 C 0,0 C 0,0 km/h (0 Bft)
13.04.2014 09:20 8,7 C 95 % 1019,2 hPa 0,0 l/m 0,0 km/h (0 Bft) SW 225 7,9 C 0,0 C 0,0 km/h (0 Bft)
13.04.2014 09:25 8,7 C 95 % 1019,4 hPa 0,0 l/m 0,0 km/h (0 Bft) SW 225 7,9 C 0,0 C 0,0 km/h (0 Bft)
13.04.2014 09:30 9,0 C 94 % 1019,4 hPa 0,0 l/m 0,0 km/h (0 Bft) SW 225 8,1 C 0,0 C 0,0 km/h (0 Bft)
13.04.2014 09:35 9,0 C 94 % 1019,4 hPa 0,0 l/m 0,0 km/h (0 Bft) SW 225 8,1 C 0,0 C 0,0 km/h (0 Bft)
13.04.2014 09:40 9,1 C 94 % 1019,4 hPa 0,0 l/m 0,0 km/h (0 Bft) SW 225 8,2 C 0,0 C 0,0 km/h (0 Bft)
13.04.2014 09:45 8,9 C 94 % 1019,9 hPa 0,0 l/m 0,0 km/h (0 Bft) SW 225 8,0 C 0,0 C 0,0 km/h (0 Bft)
13.04.2014 09:50 8,9 C 94 % 1019,9 hPa 0,0 l/m 0,0 km/h (0 Bft) SW 225 8,0 C 0,0 C 0,0 km/h (0 Bft)
13.04.2014 09:55 9,0 C 93 % 1019,9 hPa 0,0 l/m 0,0 km/h (0 Bft) SW 225 7,9 C 0,0 C 0,0 km/h (0 Bft)
13.04.2014 10:00 9,5 C 93 % 1019,9 hPa 0,0 l/m 0,0 km/h (0 Bft) SW 225 8,4 C 0,0 C 0,0 km/h (0 Bft)
13.04.2014 10:05 10,1 C 93 % 1019,7 hPa 0,0 l/m 0,0 km/h (0 Bft) SW 225 9,0 C 0,0 C 0,0 km/h (0 Bft)
13.04.2014 10:10 11,2 C 93 % 1019,7 hPa 0,0 l/m 0,0 km/h (0 Bft) SW 225 10,1 C 0,0 C 0,0 km/h (0 Bft)
13.04.2014 10:15 12,2 C 92 % 1019,7 hPa 0,0 l/m 0,0 km/h (0 Bft) SW 225 10,9 C 0,0 C 0,0 km/h (0 Bft)
13.04.2014 10:20 12,0 C 89 % 1019,7 hPa 0,0 l/m 0,0 km/h (0 Bft) SW 225 10,2 C 0,0 C 0,0 km/h (0 Bft)
13.04.2014 10:25 11,8 C 86 % 1020,4 hPa 0,0 l/m 0,0 km/h (0 Bft) SW 225 9,5 C 0,0 C 0,0 km/h (0 Bft)
13.04.2014 10:30 11,8 C 81 % 1020,4 hPa 0,0 l/m 0,0 km/h (0 Bft) SW 225 8,6 C 0,0 C 0,0 km/h (0 Bft)
13.04.2014 10:35 11,8 C 83 % 1020,4 hPa 0,0 l/m 0,0 km/h (0 Bft) SW 225 9,0 C 0,0 C 0,0 km/h (0 Bft)
13.04.2014 10:40 11,0 C 83 % 1020,4 hPa 0,0 l/m 0,0 km/h (0 Bft) SW 225 8,2 C 0,0 C 0,0 km/h (0 Bft)
13.04.2014 10:45 11,2 C 85 % 1020,2 hPa 0,0 l/m 0,0 km/h (0 Bft) SW 225 8,8 C 0,0 C 0,0 km/h (0 Bft)
13.04.2014 10:50 11,6 C 83 % 1020,2 hPa 0,0 l/m 0,0 km/h (0 Bft) SW 225 8,8 C 0,0 C 0,0 km/h (0 Bft)
13.04.2014 10:55 12,1 C 81 % 1020,2 hPa 0,0 l/m 0,0 km/h (0 Bft) SW 225 8,9 C 0,0 C 0,0 km/h (0 Bft)
13.04.2014 11:00 11,9 C 79 % 1020,2 hPa 0,0 l/m 0,0 km/h (0 Bft) SW 225 8,4 C 0,0 C 0,0 km/h (0 Bft)
13.04.2014 11:05 11,8 C 82 % 1020,6 hPa 0,0 l/m 0,0 km/h (0 Bft) SW 225 8,8 C 0,0 C 0,0 km/h (0 Bft)
13.04.2014 11:10 11,9 C 82 % 1020,6 hPa 0,0 l/m 0,0 km/h (0 Bft) SW 225 8,9 C 0,0 C 0,0 km/h (0 Bft)
13.04.2014 11:15 12,0 C 82 % 1020,6 hPa 0,0 l/m 0,0 km/h (0 Bft) SW 225 9,0 C 0,0 C 0,0 km/h (0 Bft)
13.04.2014 11:20 12,0 C 80 % 1020,6 hPa 0,0 l/m 0,0 km/h (0 Bft) SW 225 8,7 C 0,0 C 0,0 km/h (0 Bft)
13.04.2014 11:25 12,5 C 82 % 1020,6 hPa 0,0 l/m 0,0 km/h (0 Bft) SW 225 9,5 C 0,0 C 0,0 km/h (0 Bft)
13.04.2014 11:30 12,5 C 79 % 1020,6 hPa 0,0 l/m 0,0 km/h (0 Bft) SW 225 9,0 C 0,0 C 0,0 km/h (0 Bft)
13.04.2014 11:35 12,5 C 78 % 1020,6 hPa 0,0 l/m 0,0 km/h (0 Bft) SW 225 8,8 C 0,0 C 0,0 km/h (0 Bft)
13.04.2014 11:40 12,7 C 76 % 1020,6 hPa 0,0 l/m 0,0 km/h (0 Bft) SW 225 8,6 C 0,0 C 0,0 km/h (0 Bft)
13.04.2014 11:45 13,0 C 76 % 1020,7 hPa 0,0 l/m 0,0 km/h (0 Bft) SW 225 8,9 C 0,0 C 0,0 km/h (0 Bft)
13.04.2014 11:50 13,1 C 77 % 1020,7 hPa 0,0 l/m 0,0 km/h (0 Bft) SW 225 9,2 C 0,0 C 0,0 km/h (0 Bft)
13.04.2014 11:55 13,3 C 74 % 1020,7 hPa 0,0 l/m 0,0 km/h (0 Bft) SW 225 8,8 C 0,0 C 0,0 km/h (0 Bft)
13.04.2014 12:00 13,7 C 77 % 1020,7 hPa 0,0 l/m 0,0 km/h (0 Bft) SW 225 9,7 C 0,0 C 0,0 km/h (0 Bft)
13.04.2014 12:05 13,7 C 75 % 1020,6 hPa 0,0 l/m 0,0 km/h (0 Bft) SW 225 9,3 C 0,0 C 0,0 km/h (0 Bft)
13.04.2014 12:10 13,3 C 69 % 1020,6 hPa 0,0 l/m 0,0 km/h (0 Bft) SW 225 7,7 C 0,0 C 0,0 km/h (0 Bft)
13.04.2014 12:15 13,4 C 69 % 1020,6 hPa 0,0 l/m 0,0 km/h (0 Bft) SW 225 7,8 C 0,0 C 0,0 km/h (0 Bft)
13.04.2014 12:20 13,6 C 67 % 1020,6 hPa 0,0 l/m 0,0 km/h (0 Bft) SW 225 7,6 C 0,0 C 0,0 km/h (0 Bft)
13.04.2014 12:25 13,7 C 66 % 1020,7 hPa 0,0 l/m 0,0 km/h (0 Bft) SW 225 7,5 C 0,0 C 0,0 km/h (0 Bft)
13.04.2014 12:30 14,1 C 65 % 1020,7 hPa 0,0 l/m 0,0 km/h (0 Bft) SW 225 7,6 C 0,0 C 0,0 km/h (0 Bft)
13.04.2014 12:35 14,2 C 65 % 1020,7 hPa 0,0 l/m 0,0 km/h (0 Bft) SW 225 7,7 C 0,0 C 0,0 km/h (0 Bft)
13.04.2014 12:40 13,9 C 63 % 1020,7 hPa 0,0 l/m 0,0 km/h (0 Bft) SW 225 7,0 C 0,0 C 0,0 km/h (0 Bft)
13.04.2014 12:45 13,7 C 63 % 1020,6 hPa 0,0 l/m 0,0 km/h (0 Bft) SW 225 6,8 C 0,0 C 0,0 km/h (0 Bft)
13.04.2014 12:50 13,5 C 64 % 1020,6 hPa 0,0 l/m 0,0 km/h (0 Bft) SW 225 6,8 C 0,0 C 0,0 km/h (0 Bft)
13.04.2014 12:55 13,1 C 66 % 1020,6 hPa 0,0 l/m 0,0 km/h (0 Bft) SW 225 6,9 C 0,0 C 0,0 km/h (0 Bft)
13.04.2014 13:00 13,6 C 65 % 1020,6 hPa 0,0 l/m 0,0 km/h (0 Bft) SW 225 7,1 C 0,0 C 0,0 km/h (0 Bft)
13.04.2014 13:05 14,3 C 64 % 1020,4 hPa 0,0 l/m 0,0 km/h (0 Bft) SW 225 7,6 C 0,0 C 0,0 km/h (0 Bft)
13.04.2014 13:10 14,3 C 64 % 1020,4 hPa 0,0 l/m 0,0 km/h (0 Bft) SW 225 7,6 C 0,0 C 0,0 km/h (0 Bft)
13.04.2014 13:15 13,9 C 60 % 1020,4 hPa 0,0 l/m 0,0 km/h (0 Bft) SW 225 6,3 C 0,0 C 0,0 km/h (0 Bft)
13.04.2014 13:20 13,5 C 59 % 1020,4 hPa 0,0 l/m 0,0 km/h (0 Bft) SW 225 5,6 C 0,0 C 0,0 km/h (0 Bft)
13.04.2014 13:25 13,3 C 60 % 1020,4 hPa 0,0 l/m 0,0 km/h (0 Bft) SW 225 5,7 C 0,0 C 0,0 km/h (0 Bft)
13.04.2014 13:30 13,5 C 60 % 1020,6 hPa 0,0 l/m 0,0 km/h (0 Bft) SW 225 5,9 C 0,0 C 0,0 km/h (0 Bft)
13.04.2014 13:35 13,1 C 58 % 1020,6 hPa 0,0 l/m 0,0 km/h (0 Bft) SW 225 5,0 C 0,0 C 0,0 km/h (0 Bft)
13.04.2014 13:40 14,6 C 58 % 1020,6 hPa 0,0 l/m 0,0 km/h (0 Bft) SW 225 6,4 C 0,0 C 0,0 km/h (0 Bft)
13.04.2014 13:45 14,0 C 56 % 1020,6 hPa 0,0 l/m 0,0 km/h (0 Bft) SW 225 5,4 C 0,0 C 0,0 km/h (0 Bft)
13.04.2014 13:50 13,7 C 58 % 1020,6 hPa 0,0 l/m 0,0 km/h (0 Bft) SW 225 5,6 C 0,0 C 0,0 km/h (0 Bft)
13.04.2014 13:55 13,4 C 58 % 1020,6 hPa 0,0 l/m 0,0 km/h (0 Bft) SW 225 5,3 C 0,0 C 0,0 km/h (0 Bft)
13.04.2014 14:00 13,5 C 57 % 1020,6 hPa 0,0 l/m 0,0 km/h (0 Bft) SW 225 5,2 C 0,0 C 0,0 km/h (0 Bft)
13.04.2014 14:05 15,2 C 55 % 1020,6 hPa 0,0 l/m 0,0 km/h (0 Bft) SW 225 6,2 C 0,0 C 0,0 km/h (0 Bft)
13.04.2014 14:10 15,9 C 52 % 1020,9 hPa 0,0 l/m 0,0 km/h (0 Bft) SW 225 6,1 C 0,0 C 0,0 km/h (0 Bft)
13.04.2014 14:14 15,8 C 49 % 1020,9 hPa 0,0 l/m 0,0 km/h (0 Bft) SW 225 5,1 C 0,0 C 0,0 km/h (0 Bft)
13.04.2014 14:15 14,3 C 51 % 1020,9 hPa 0,0 l/m 0,0 km/h (0 Bft) SW 225 4,3 C 0,0 C 0,0 km/h (0 Bft)
13.04.2014 14:20 14,1 C 53 % 1020,9 hPa 0,0 l/m 0,0 km/h (0 Bft) SW 225 4,7 C 0,0 C 0,0 km/h (0 Bft)
13.04.2014 14:25 14,7 C 53 % 1020,5 hPa 0,0 l/m 0,0 km/h (0 Bft) SW 225 5,2 C 0,0 C 0,0 km/h (0 Bft)
13.04.2014 14:30 15,2 C 54 % 1020,5 hPa 0,0 l/m 0,0 km/h (0 Bft) SW 225 6,0 C 0,0 C 0,0 km/h (0 Bft)
13.04.2014 14:35 15,7 C 51 % 1020,5 hPa 0,0 l/m 0,0 km/h (0 Bft) SW 225 5,6 C 0,0 C 0,0 km/h (0 Bft)
13.04.2014 14:40 15,0 C 49 % 1020,5 hPa 0,0 l/m 0,0 km/h (0 Bft) SW 225 4,4 C 0,0 C 0,0 km/h (0 Bft)
13.04.2014 14:45 15,2 C 53 % 1020,5 hPa 0,0 l/m 0,0 km/h (0 Bft) SW 225 5,7 C 0,0 C 0,0 km/h (0 Bft)
13.04.2014 14:50 15,5 C 53 % 1020,5 hPa 0,0 l/m 0,0 km/h (0 Bft) SW 225 6,0 C 0,0 C 0,0 km/h (0 Bft)
13.04.2014 14:55 15,2 C 52 % 1020,5 hPa 0,0 l/m 0,0 km/h (0 Bft) SW 225 5,4 C 0,0 C 0,0 km/h (0 Bft)
13.04.2014 15:00 14,8 C 50 % 1020,5 hPa 0,0 l/m 0,0 km/h (0 Bft) SW 225 4,5 C 0,0 C 0,0 km/h (0 Bft)
13.04.2014 15:05 14,9 C 49 % 1020,3 hPa 0,0 l/m 0,0 km/h (0 Bft) SW 225 4,3 C 0,0 C 0,0 km/h (0 Bft)
13.04.2014 15:10 15,5 C 49 % 1020,3 hPa 0,0 l/m 0,0 km/h (0 Bft) SW 225 4,8 C 0,0 C 0,0 km/h (0 Bft)
13.04.2014 15:15 16,1 C 45 % 1020,3 hPa 0,0 l/m 0,0 km/h (0 Bft) SW 225 4,2 C 0,0 C 0,0 km/h (0 Bft)
13.04.2014 15:20 16,4 C 46 % 1020,3 hPa 0,0 l/m 0,0 km/h (0 Bft) SW 225 4,8 C 0,0 C 0,0 km/h (0 Bft)
13.04.2014 15:25 16,3 C 46 % 1020,1 hPa 0,0 l/m 0,0 km/h (0 Bft) SW 225 4,7 C 0,0 C 0,0 km/h (0 Bft)
13.04.2014 15:30 14,7 C 49 % 1020,1 hPa 0,0 l/m 0,0 km/h (0 Bft) SW 225 4,1 C 0,0 C 0,0 km/h (0 Bft)
13.04.2014 15:35 14,7 C 49 % 1020,1 hPa 0,0 l/m 0,0 km/h (0 Bft) SW 225 4,1 C 0,0 C 0,0 km/h (0 Bft)
13.04.2014 15:40 14,1 C 50 % 1020,1 hPa 0,0 l/m 0,0 km/h (0 Bft) SW 225 3,8 C 0,0 C 0,0 km/h (0 Bft)
13.04.2014 15:45 13,8 C 53 % 1019,9 hPa 0,0 l/m 0,0 km/h (0 Bft) SW 225 4,4 C 0,0 C 0,0 km/h (0 Bft)
13.04.2014 15:50 15,1 C 52 % 1019,9 hPa 0,0 l/m 0,0 km/h (0 Bft) SW 225 5,3 C 0,0 C 0,0 km/h (0 Bft)
13.04.2014 15:55 15,7 C 49 % 1019,9 hPa 0,0 l/m 0,0 km/h (0 Bft) SW 225 5,0 C 0,0 C 0,0 km/h (0 Bft)
13.04.2014 16:00 16,3 C 47 % 1019,9 hPa 0,0 l/m 0,0 km/h (0 Bft) SW 225 5,0 C 0,0 C 0,0 km/h (0 Bft)
13.04.2014 16:05 15,3 C 49 % 1019,8 hPa 0,0 l/m 0,0 km/h (0 Bft) SW 225 4,7 C 0,0 C 0,0 km/h (0 Bft)
13.04.2014 16:10 14,4 C 49 % 1019,8 hPa 0,0 l/m 0,0 km/h (0 Bft) SW 225 3,8 C 0,0 C 0,0 km/h (0 Bft)
13.04.2014 16:15 14,3 C 49 % 1019,8 hPa 0,0 l/m 0,0 km/h (0 Bft) SW 225 3,7 C 0,0 C 0,0 km/h (0 Bft)
13.04.2014 16:20 14,6 C 48 % 1019,8 hPa 0,0 l/m 0,0 km/h (0 Bft) SW 225 3,7 C 0,0 C 0,0 km/h (0 Bft)
13.04.2014 16:25 14,3 C 49 % 1019,5 hPa 0,0 l/m 0,0 km/h (0 Bft) SW 225 3,7 C 0,0 C 0,0 km/h (0 Bft)
13.04.2014 16:30 14,7 C 51 % 1019,5 hPa 0,0 l/m 0,0 km/h (0 Bft) SW 225 4,7 C 0,0 C 0,0 km/h (0 Bft)
13.04.2014 16:35 14,7 C 51 % 1019,5 hPa 0,0 l/m 0,0 km/h (0 Bft) SW 225 4,7 C 0,0 C 0,0 km/h (0 Bft)
13.04.2014 16:40 14,3 C 48 % 1019,5 hPa 0,0 l/m 0,0 km/h (0 Bft) SW 225 3,4 C 0,0 C 0,0 km/h (0 Bft)
13.04.2014 16:45 14,5 C 50 % 1019,3 hPa 0,0 l/m 0,0 km/h (0 Bft) SW 225 4,2 C 0,0 C 0,0 km/h (0 Bft)
13.04.2014 16:50 14,0 C 51 % 1019,3 hPa 0,0 l/m 0,0 km/h (0 Bft) SW 225 4,0 C 0,0 C 0,0 km/h (0 Bft)
13.04.2014 16:55 13,7 C 51 % 1019,3 hPa 0,0 l/m 0,0 km/h (0 Bft) SW 225 3,8 C 0,0 C 0,0 km/h (0 Bft)
13.04.2014 17:00 14,1 C 49 % 1019,3 hPa 0,0 l/m 0,0 km/h (0 Bft) SW 225 3,6 C 0,0 C 0,0 km/h (0 Bft)
13.04.2014 17:05 13,6 C 50 % 1019,3 hPa 0,0 l/m 0,0 km/h (0 Bft) SW 225 3,4 C 0,0 C 0,0 km/h (0 Bft)
13.04.2014 17:10 13,3 C 53 % 1019,3 hPa 0,0 l/m 0,0 km/h (0 Bft) SW 225 3,9 C 0,0 C 0,0 km/h (0 Bft)
13.04.2014 17:15 13,5 C 54 % 1019,3 hPa 0,0 l/m 0,0 km/h (0 Bft) SW 225 4,4 C 0,0 C 0,0 km/h (0 Bft)
13.04.2014 17:20 13,9 C 53 % 1019,3 hPa 0,0 l/m 0,0 km/h (0 Bft) SW 225 4,5 C 0,0 C 0,0 km/h (0 Bft)
13.04.2014 17:25 13,8 C 53 % 1019,1 hPa 0,0 l/m 0,0 km/h (0 Bft) SW 225 4,4 C 0,0 C 0,0 km/h (0 Bft)
13.04.2014 17:30 13,7 C 54 % 1019,1 hPa 0,0 l/m 0,0 km/h (0 Bft) SW 225 4,6 C 0,0 C 0,0 km/h (0 Bft)
13.04.2014 17:35 13,4 C 55 % 1019,1 hPa 0,0 l/m 0,0 km/h (0 Bft) SW 225 4,5 C 0,0 C 0,0 km/h (0 Bft)
13.04.2014 17:40 13,1 C 56 % 1019,1 hPa 0,0 l/m 0,0 km/h (0 Bft) SW 225 4,5 C 0,0 C 0,0 km/h (0 Bft)
13.04.2014 17:45 13,1 C 56 % 1018,9 hPa 0,0 l/m 0,0 km/h (0 Bft) SW 225 4,5 C 0,0 C 0,0 km/h (0 Bft)
13.04.2014 17:50 13,2 C 56 % 1018,9 hPa 0,0 l/m 0,0 km/h (0 Bft) SW 225 4,6 C 0,0 C 0,0 km/h (0 Bft)
13.04.2014 17:55 13,7 C 55 % 1018,9 hPa 0,0 l/m 0,0 km/h (0 Bft) SW 225 4,8 C 0,0 C 0,0 km/h (0 Bft)
13.04.2014 18:00 14,1 C 54 % 1018,9 hPa 0,0 l/m 0,0 km/h (0 Bft) SW 225 4,9 C 0,0 C 0,0 km/h (0 Bft)
13.04.2014 18:05 14,0 C 52 % 1018,9 hPa 0,0 l/m 0,0 km/h (0 Bft) SW 225 4,3 C 0,0 C 0,0 km/h (0 Bft)
13.04.2014 18:10 14,0 C 52 % 1018,9 hPa 0,0 l/m 0,0 km/h (0 Bft) SW 225 4,3 C 0,0 C 0,0 km/h (0 Bft)
13.04.2014 18:15 14,0 C 52 % 1018,9 hPa 0,0 l/m 0,0 km/h (0 Bft) SW 225 4,3 C 0,0 C 0,0 km/h (0 Bft)
13.04.2014 18:20 13,9 C 53 % 1018,9 hPa 0,0 l/m 0,0 km/h (0 Bft) SW 225 4,5 C 0,0 C 0,0 km/h (0 Bft)
13.04.2014 18:25 13,6 C 52 % 1018,9 hPa 0,0 l/m 0,0 km/h (0 Bft) SW 225 3,9 C 0,0 C 0,0 km/h (0 Bft)
13.04.2014 18:30 13,5 C 52 % 1019,1 hPa 0,0 l/m 0,0 km/h (0 Bft) SW 225 3,8 C 0,0 C 0,0 km/h (0 Bft)
13.04.2014 18:35 13,4 C 55 % 1019,1 hPa 0,0 l/m 0,0 km/h (0 Bft) SW 225 4,5 C 0,0 C 0,0 km/h (0 Bft)
13.04.2014 18:40 13,4 C 54 % 1019,1 hPa 0,0 l/m 0,0 km/h (0 Bft) SW 225 4,3 C 0,0 C 0,0 km/h (0 Bft)
13.04.2014 18:45 13,1 C 55 % 1019,1 hPa 0,0 l/m 0,0 km/h (0 Bft) SW 225 4,3 C 0,0 C 0,0 km/h (0 Bft)
13.04.2014 18:50 13,0 C 55 % 1018,9 hPa 0,0 l/m 0,0 km/h (0 Bft) SW 225 4,2 C 0,0 C 0,0 km/h (0 Bft)
13.04.2014 18:55 12,9 C 56 % 1018,9 hPa 0,0 l/m 0,0 km/h (0 Bft) SW 225 4,3 C 0,0 C 0,0 km/h (0 Bft)
13.04.2014 19:00 12,8 C 56 % 1018,9 hPa 0,0 l/m 0,0 km/h (0 Bft) SW 225 4,2 C 0,0 C 0,0 km/h (0 Bft)
13.04.2014 19:05 12,8 C 57 % 1018,9 hPa 0,0 l/m 0,0 km/h (0 Bft) SW 225 4,5 C 0,0 C 0,0 km/h (0 Bft)
13.04.2014 19:10 12,6 C 57 % 1018,9 hPa 0,0 l/m 0,0 km/h (0 Bft) SW 225 4,3 C 0,0 C 0,0 km/h (0 Bft)
13.04.2014 19:13 12,2 C 57 % 1018,9 hPa 0,0 l/m 0,0 km/h (0 Bft) SW 225 3,9 C 0,0 C 0,0 km/h (0 Bft)
13.04.2014 19:15 12,0 C 58 % 1018,9 hPa 0,0 l/m 0,0 km/h (0 Bft) SW 225 4,0 C 0,0 C 0,0 km/h (0 Bft)
13.04.2014 19:20 11,6 C 59 % 1018,9 hPa 0,0 l/m 0,0 km/h (0 Bft) SW 225 3,9 C 0,0 C 0,0 km/h (0 Bft)
13.04.2014 19:25 11,5 C 59 % 1018,9 hPa 0,0 l/m 0,0 km/h (0 Bft) SW 225 3,8 C 0,0 C 0,0 km/h (0 Bft)
13.04.2014 19:30 11,4 C 59 % 1018,9 hPa 0,0 l/m 0,0 km/h (0 Bft) SW 225 3,7 C 0,0 C 0,0 km/h (0 Bft)
13.04.2014 19:36 11,3 C 59 % 1018,9 hPa 0,0 l/m 0,0 km/h (0 Bft) SW 225 3,6 C 0,0 C 0,0 km/h (0 Bft)
13.04.2014 19:40 11,1 C 60 % 1018,9 hPa 0,0 l/m 0,0 km/h (0 Bft) SW 225 3,6 C 0,0 C 0,0 km/h (0 Bft)
13.04.2014 19:45 10,9 C 61 % 1018,8 hPa 0,0 l/m 0,0 km/h (0 Bft) SW 225 3,7 C 0,0 C 0,0 km/h (0 Bft)
13.04.2014 19:50 10,5 C 63 % 1018,8 hPa 0,0 l/m 0,0 km/h (0 Bft) SW 225 3,8 C 0,0 C 0,0 km/h (0 Bft)
13.04.2014 19:55 10,3 C 63 % 1018,8 hPa 0,0 l/m 0,0 km/h (0 Bft) SW 225 3,6 C 0,0 C 0,0 km/h (0 Bft)
13.04.2014 20:00 9,7 C 65 % 1018,8 hPa 0,0 l/m 0,0 km/h (0 Bft) SW 225 3,4 C 0,0 C 0,0 km/h (0 Bft)
13.04.2014 20:05 9,5 C 66 % 1019,2 hPa 0,0 l/m 0,0 km/h (0 Bft) SW 225 3,5 C 0,0 C 0,0 km/h (0 Bft)
13.04.2014 20:10 9,4 C 67 % 1019,2 hPa 0,0 l/m 0,0 km/h (0 Bft) SW 225 3,6 C 0,0 C 0,0 km/h (0 Bft)
13.04.2014 20:15 9,6 C 66 % 1019,2 hPa 0,0 l/m 0,0 km/h (0 Bft) SW 225 3,6 C 0,0 C 0,0 km/h (0 Bft)
13.04.2014 20:20 8,9 C 67 % 1019,2 hPa 0,0 l/m 0,0 km/h (0 Bft) SW 225 3,1 C 0,0 C 0,0 km/h (0 Bft)
13.04.2014 20:25 8,7 C 67 % 1019,1 hPa 0,0 l/m 0,0 km/h (0 Bft) SW 225 2,9 C 0,0 C 0,0 km/h (0 Bft)
13.04.2014 20:30 9,1 C 64 % 1019,1 hPa 0,0 l/m 0,0 km/h (0 Bft) SW 225 2,7 C 0,0 C 0,0 km/h (0 Bft)
13.04.2014 20:35 9,0 C 63 % 1019,1 hPa 0,0 l/m 0,0 km/h (0 Bft) SW 225 2,3 C 0,0 C 0,0 km/h (0 Bft)
13.04.2014 20:40 9,0 C 62 % 1019,1 hPa 0,0 l/m 0,0 km/h (0 Bft) SW 225 2,1 C 0,0 C 0,0 km/h (0 Bft)
13.04.2014 20:45 8,7 C 63 % 1019,1 hPa 0,0 l/m 0,0 km/h (0 Bft) SW 225 2,1 C 0,0 C 0,0 km/h (0 Bft)
13.04.2014 20:50 9,0 C 61 % 1019,1 hPa 0,0 l/m 0,0 km/h (0 Bft) SW 225 1,9 C 0,0 C 0,0 km/h (0 Bft)
13.04.2014 20:55 8,9 C 62 % 1019,1 hPa 0,0 l/m 0,0 km/h (0 Bft) SW 225 2,0 C 0,0 C 0,0 km/h (0 Bft)
13.04.2014 21:00 8,7 C 62 % 1019,1 hPa 0,0 l/m 0,0 km/h (0 Bft) SW 225 1,8 C 0,0 C 0,0 km/h (0 Bft)
13.04.2014 21:05 8,4 C 63 % 1018,9 hPa 0,0 l/m 0,0 km/h (0 Bft) SW 225 1,8 C 0,0 C 0,0 km/h (0 Bft)
13.04.2014 21:10 8,7 C 62 % 1018,9 hPa 0,0 l/m 0,0 km/h (0 Bft) SW 225 1,8 C 0,0 C 0,0 km/h (0 Bft)
13.04.2014 21:15 8,5 C 63 % 1018,9 hPa 0,0 l/m 0,0 km/h (0 Bft) SW 225 1,9 C 0,0 C 0,0 km/h (0 Bft)
13.04.2014 21:20 8,1 C 65 % 1018,9 hPa 0,0 l/m 0,0 km/h (0 Bft) SW 225 1,9 C 0,0 C 0,0 km/h (0 Bft)
13.04.2014 21:25 8,0 C 65 % 1018,9 hPa 0,0 l/m 0,0 km/h (0 Bft) SW 225 1,8 C 0,0 C 0,0 km/h (0 Bft)
13.04.2014 21:30 7,8 C 66 % 1018,9 hPa 0,0 l/m 0,0 km/h (0 Bft) SW 225 1,9 C 0,0 C 0,0 km/h (0 Bft)
13.04.2014 21:35 7,7 C 66 % 1018,9 hPa 0,0 l/m 0,0 km/h (0 Bft) SW 225 1,8 C 0,0 C 0,0 km/h (0 Bft)
13.04.2014 21:40 7,6 C 67 % 1018,9 hPa 0,0 l/m 0,0 km/h (0 Bft) SW 225 1,9 C 0,0 C 0,0 km/h (0 Bft)
13.04.2014 21:45 7,6 C 68 % 1018,8 hPa 0,0 l/m 0,0 km/h (0 Bft) SW 225 2,1 C 0,0 C 0,0 km/h (0 Bft)
13.04.2014 21:50 7,7 C 68 % 1018,8 hPa 0,0 l/m 0,0 km/h (0 Bft) SW 225 2,2 C 0,0 C 0,0 km/h (0 Bft)
13.04.2014 21:55 7,7 C 68 % 1018,8 hPa 0,0 l/m 0,0 km/h (0 Bft) SW 225 2,2 C 0,0 C 0,0 km/h (0 Bft)
13.04.2014 22:00 7,8 C 69 % 1018,8 hPa 0,0 l/m 0,0 km/h (0 Bft) SW 225 2,5 C 0,0 C 0,0 km/h (0 Bft)
13.04.2014 22:05 8,0 C 69 % 1018,7 hPa 0,0 l/m 0,0 km/h (0 Bft) SW 225 2,7 C 0,0 C 0,0 km/h (0 Bft)
13.04.2014 22:10 8,0 C 69 % 1018,7 hPa 0,0 l/m 0,0 km/h (0 Bft) SW 225 2,7 C 0,0 C 0,0 km/h (0 Bft)
13.04.2014 22:15 7,9 C 69 % 1018,7 hPa 0,0 l/m 0,0 km/h (0 Bft) SW 225 2,6 C 0,0 C 0,0 km/h (0 Bft)
13.04.2014 22:20 7,6 C 69 % 1018,7 hPa 0,0 l/m 0,0 km/h (0 Bft) SW 225 2,3 C 0,0 C 0,0 km/h (0 Bft)
13.04.2014 22:25 7,4 C 69 % 1018,4 hPa 0,0 l/m 0,0 km/h (0 Bft) SW 225 2,1 C 0,0 C 0,0 km/h (0 Bft)
13.04.2014 22:30 7,3 C 69 % 1018,4 hPa 0,0 l/m 0,0 km/h (0 Bft) SW 225 2,0 C 0,0 C 0,0 km/h (0 Bft)
13.04.2014 22:35 7,1 C 69 % 1018,4 hPa 0,0 l/m 0,0 km/h (0 Bft) SW 225 1,8 C 0,0 C 0,0 km/h (0 Bft)
13.04.2014 22:40 7,0 C 70 % 1018,4 hPa 0,0 l/m 0,0 km/h (0 Bft) SW 225 1,9 C 0,0 C 0,0 km/h (0 Bft)
13.04.2014 22:45 7,1 C 70 % 1018,4 hPa 0,0 l/m 0,0 km/h (0 Bft) SW 225 2,0 C 0,0 C 0,0 km/h (0 Bft)
13.04.2014 22:50 7,1 C 70 % 1018,4 hPa 0,0 l/m 0,0 km/h (0 Bft) SW 225 2,0 C 0,0 C 0,0 km/h (0 Bft)
13.04.2014 22:55 7,1 C 70 % 1018,4 hPa 0,0 l/m 0,0 km/h (0 Bft) SW 225 2,0 C 0,0 C 0,0 km/h (0 Bft)
13.04.2014 23:00 6,8 C 70 % 1018,4 hPa 0,0 l/m 0,0 km/h (0 Bft) SW 225 1,7 C 0,0 C 0,0 km/h (0 Bft)
13.04.2014 23:05 6,4 C 71 % 1018,6 hPa 0,0 l/m 0,0 km/h (0 Bft) SW 225 1,5 C 0,0 C 0,0 km/h (0 Bft)
13.04.2014 23:10 7,0 C 72 % 1018,6 hPa 0,0 l/m 0,0 km/h (0 Bft) SW 225 2,3 C 0,0 C 0,0 km/h (0 Bft)
13.04.2014 23:15 7,0 C 72 % 1018,6 hPa 0,0 l/m 0,0 km/h (0 Bft) SW 225 2,3 C 0,0 C 0,0 km/h (0 Bft)
13.04.2014 23:20 7,0 C 72 % 1018,6 hPa 0,0 l/m 0,0 km/h (0 Bft) SW 225 2,3 C 0,0 C 0,0 km/h (0 Bft)
13.04.2014 23:25 7,1 C 72 % 1018,6 hPa 0,0 l/m 0,0 km/h (0 Bft) SW 225 2,4 C 0,0 C 0,0 km/h (0 Bft)
13.04.2014 23:30 7,5 C 71 % 1018,7 hPa 0,0 l/m 0,0 km/h (0 Bft) SW 225 2,6 C 0,0 C 0,0 km/h (0 Bft)
13.04.2014 23:35 8,1 C 68 % 1018,7 hPa 0,0 l/m 0,0 km/h (0 Bft) SW 225 2,6 C 0,0 C 0,0 km/h (0 Bft)
13.04.2014 23:40 8,5 C 67 % 1018,7 hPa 0,0 l/m 0,0 km/h (0 Bft) SW 225 2,7 C 0,0 C 0,0 km/h (0 Bft)
13.04.2014 23:45 8,7 C 64 % 1018,7 hPa 0,0 l/m 0,0 km/h (0 Bft) SW 225 2,3 C 0,0 C 0,0 km/h (0 Bft)
13.04.2014 23:50 8,6 C 63 % 1019,4 hPa 0,0 l/m 0,0 km/h (0 Bft) SW 225 2,0 C 0,0 C 0,0 km/h (0 Bft)
13.04.2014 23:55 8,6 C 63 % 1019,4 hPa 0,0 l/m 0,0 km/h (0 Bft) SW 225 2,0 C 0,0 C 0,0 km/h (0 Bft)
_ Min-Zeit 23:05 15:15 00:00 - 23:55 - - 23:05 23:55 23:55
Minimum _ 6,4 C 45 % 1016,5 hPa - 0,0 km/h (0 Bft) - - 1,5 C 0,0 C 0,0 km/h (0 Bft)
_ Max-Zeit 15:20 09:25 14:20 23:55 23:55 - - 10:15 23:55 23:55
Maximum _ 16,4 C 95 % 1020,9 hPa 0,0 l/m 0,0 km/h
SW (0 Bft)
- - 10,9 C 0,0 C 0,0 km/h
SW (0 Bft)
Durchschnitt _ 10,3 C 75 % 1018,7 hPa #0,0 l/m 0,0 km/h (0 Bft) - - - 5,7 C 0,0 C 0,0 km/h (0 Bft)